Вернуться в каталог

FENGYUN 1C DEB

АктивенPO
NORAD 33698·DEBRIS·🇨🇳 China

Запущен May 10, 1999 с Taiyuan Satellite Launch Center

Loading…

Ближайшие Пролёты (ближайшие 24 часа)

TLE

СвежийSource: Space-Track

Эпоха: Sep 12, 2026, 18:10 UTC

1 33698U 99025DGK 26255.75746679  .00000631  00000-0  13831-3 0  9994
2 33698  99.6459 263.1236 0137222 124.3602 237.0661 14.56470895996245

Отслеживайте FENGYUN 1C DEB в реальном времени с AllMySat

Download on the App Store